09-02-2023, 00:00:02,    174,    0.0,    0.2,   0.00,   0.00, 1024.4,   83.4, -999.0
09-02-2023, 00:00:12,    174,    0.0,    0.1,   0.00,   0.00, 1024.4,   83.5, -999.0
09-02-2023, 00:00:22,    174,    0.0,    0.1,   0.00,   0.00, 1024.3,   83.5, -999.0
09-02-2023, 00:00:32,    174,    0.0,    0.0,   0.00,   0.00, 1024.4,   83.5, -999.0
09-02-2023, 00:00:42,    173,    0.0,    0.2,   0.00,   0.00, 1024.4,   83.4, -999.0
09-02-2023, 00:00:52,    174,    0.0,    0.2,   0.00,   0.00, 1024.3,   83.4, -999.0
09-02-2023, 00:01:02,    173,    0.0,    0.1,   0.00,   0.00, 1024.3,   83.5, -999.0
09-02-2023, 00:01:12,    173,    0.0,    0.1,   0.00,   0.00, 1024.3,   83.5, -999.0
09-02-2023, 00:01:22,    175,    0.0,    0.0,   0.00,   0.00, 1024.3,   83.5, -999.0
09-02-2023, 00:01:32,    175,    0.0,    0.1,   0.00,   0.00, 1024.3,   83.4, -999.0
09-02-2023, 00:01:42,    175,    0.0,    0.1,   0.00,   0.00, 1024.3,   83.5, -999.0
09-02-2023, 00:01:52,    172,    0.0,    0.1,   0.00,   0.00, 1024.3,   83.6, -999.0
09-02-2023, 00:02:02,    173,    0.0,    0.1,   0.00,   0.00, 1024.3,   83.5, -999.0
09-02-2023, 00:02:12,    172,    0.0,    0.1,   0.00,   0.00, 1024.3,   83.6, -999.0
09-02-2023, 00:02:22,    172,    0.0,    0.1,   0.00,   0.00, 1024.3,   83.6, -999.0
09-02-2023, 00:02:32,    171,    0.2,    0.1,   0.00,   0.00, 1024.4,   84.1, -999.0
09-02-2023, 00:02:42,    171,    0.1,    0.1,   0.00,   0.00, 1024.3,   83.9, -999.0
09-02-2023, 00:02:52,    170,    0.0,    0.1,   0.00,   0.00, 1024.3,   83.9, -999.0
09-02-2023, 00:03:02,    171,    0.0,    0.1,   0.00,   0.00, 1024.4,   83.9, -999.0
09-02-2023, 00:03:12,    171,    0.0,    0.0,   0.00,   0.00, 1024.3,   84.0, -999.0
09-02-2023, 00:03:22,    171,    0.0,    0.1,   0.00,   0.00, 1024.3,   84.0, -999.0
09-02-2023, 00:03:32,    171,    0.0,    0.1,   0.00,   0.00, 1024.4,   84.0, -999.0
09-02-2023, 00:03:42,    171,    0.0,    0.1,   0.00,   0.00, 1024.4,   84.0, -999.0
09-02-2023, 00:03:52,    171,    0.0,    0.0,   0.00,   0.00, 1024.4,   83.9, -999.0
09-02-2023, 00:04:02,    171,    0.0,    0.0,   0.00,   0.00, 1024.4,   83.9, -999.0
09-02-2023, 00:04:12,    171,    0.0,    0.1,   0.00,   0.00, 1024.4,   84.1, -999.0
09-02-2023, 00:04:22,    170,    0.0,    0.1,   0.00,   0.00, 1024.4,   84.1, -999.0
09-02-2023, 00:04:32,    170,    0.0,    0.1,   0.00,   0.00, 1024.4,   84.1, -999.0
09-02-2023, 00:04:42,    171,    0.0,    0.1,   0.00,   0.00, 1024.4,   84.2, -999.0
09-02-2023, 00:04:52,    170,    0.0,    0.1,   0.00,   0.00, 1024.4,   84.3, -999.0
09-02-2023, 00:05:02,    171,    0.2,    0.1,   0.00,   0.00, 1024.5,   84.4, -999.0
09-02-2023, 00:05:12,    171,    0.0,    0.0,   0.00,   0.00, 1024.3,   84.3, -999.0
09-02-2023, 00:05:22,    170,    0.0,    0.1,   0.00,   0.00, 1024.3,   84.4, -999.0
09-02-2023, 00:05:32,    171,    0.0,    0.0,   0.00,   0.00, 1024.4,   84.4, -999.0
09-02-2023, 00:05:42,    171,    0.0,    0.1,   0.00,   0.00, 1024.3,   84.5, -999.0
09-02-2023, 00:05:52,    171,    0.0,    0.1,   0.00,   0.00, 1024.3,   84.5, -999.0
09-02-2023, 00:06:01,    170,    0.0,    0.1,   0.00,   0.00, 1024.3,   84.5, -999.0
09-02-2023, 00:06:12,    170,    0.0,    0.1,   0.00,   0.00, 1024.3,   84.6, -999.0
09-02-2023, 00:06:22,    170,    0.0,    0.1,   0.00,   0.00, 1024.3,   84.5, -999.0
09-02-2023, 00:06:32,    171,    0.0,    0.1,   0.00,   0.00, 1024.4,   84.5, -999.0
09-02-2023, 00:06:41,    172,    0.0,    0.1,   0.00,   0.00, 1024.4,   84.7, -999.0
09-02-2023, 00:06:52,    171,    0.0,    0.1,   0.00,   0.00, 1024.4,   84.8, -999.0
09-02-2023, 00:07:02,    171,    0.0,    0.1,   0.00,   0.00, 1024.4,   84.8, -999.0
09-02-2023, 00:07:11,    171,    0.0,    0.2,   0.00,   0.00, 1024.3,   84.9, -999.0
09-02-2023, 00:07:21,    171,    0.0,    0.2,   0.00,   0.00, 1024.3,   84.9, -999.0
09-02-2023, 00:07:32,    171,    0.0,    0.2,   0.00,   0.00, 1024.3,   84.9, -999.0
09-02-2023, 00:07:42,    171,    0.0,    0.2,   0.00,   0.00, 1024.3,   84.9, -999.0
09-02-2023, 00:07:53,    172,    0.0,    0.2,   0.00,   0.00, 1024.3,   84.9, -999.0
09-02-2023, 00:08:02,    171,    0.0,    0.1,   0.00,   0.00, 1024.3,   84.9, -999.0
09-02-2023, 00:08:12,    171,    0.0,    0.3,   0.00,   0.00, 1024.3,   84.8, -999.0
09-02-2023, 00:08:21,    172,    0.0,    0.3,   0.00,   0.00, 1024.3,   84.8, -999.0
09-02-2023, 00:08:31,    174,    0.0,    0.3,   0.00,   0.00, 1024.3,   84.8, -999.0
09-02-2023, 00:08:42,    174,    0.0,    0.3,   0.00,   0.00, 1024.3,   84.8, -999.0
09-02-2023, 00:08:51,    174,    0.0,    0.3,   0.00,   0.00, 1024.3,   84.6, -999.0
09-02-2023, 00:09:01,    174,    0.0,    0.3,   0.00,   0.00, 1024.3,   84.6, -999.0
09-02-2023, 00:09:11,    173,    0.0,    0.3,   0.00,   0.00, 1024.3,   84.4, -999.0
09-02-2023, 00:09:22,    173,    0.0,    0.3,   0.00,   0.00, 1024.3,   84.4, -999.0
09-02-2023, 00:09:31,    174,    0.0,    0.2,   0.00,   0.00, 1024.3,   84.4, -999.0
09-02-2023, 00:09:41,    173,    0.0,    0.2,   0.00,   0.00, 1024.3,   84.3, -999.0
09-02-2023, 00:09:51,    174,    0.0,    0.2,   0.00,   0.00, 1024.3,   84.2, -999.0
09-02-2023, 00:10:01,    173,    0.0,    0.2,   0.00,   0.00, 1024.3,   84.2, -999.0
09-02-2023, 00:10:11,    173,    0.0,    0.2,   0.00,   0.00, 1024.3,   84.1, -999.0
09-02-2023, 00:10:21,    173,    0.0,    0.2,   0.00,   0.00, 1024.3,   84.1, -999.0
09-02-2023, 00:10:31,    173,    0.0,    0.2,   0.00,   0.00, 1024.2,   84.1, -999.0
09-02-2023, 00:10:41,    174,    0.0,    0.2,   0.00,   0.00, 1024.2,   84.0, -999.0
09-02-2023, 00:10:51,    172,    0.0,    0.2,   0.00,   0.00, 1024.3,   84.1, -999.0
09-02-2023, 00:11:01,    172,    0.0,    0.2,   0.00,   0.00, 1024.2,   84.1, -999.0
09-02-2023, 00:11:11,    172,    0.0,    0.2,   0.00,   0.00, 1024.2,   84.1, -999.0
09-02-2023, 00:11:21,    172,    0.0,    0.2,   0.00,   0.00, 1024.2,   84.1, -999.0
09-02-2023, 00:11:31,    172,    0.0,    0.2,   0.00,   0.00, 1024.2,   84.2, -999.0
09-02-2023, 00:11:41,    173,    0.0,    0.2,   0.00,   0.00, 1024.2,   84.2, -999.0
09-02-2023, 00:11:51,    173,    0.0,    0.1,   0.00,   0.00, 1024.2,   84.3, -999.0
09-02-2023, 00:12:01,    173,    0.0,    0.1,   0.00,   0.00, 1024.2,   84.3, -999.0
09-02-2023, 00:12:11,    168,    0.0,    0.2,   0.00,   0.00, 1024.2,   84.3, -999.0
09-02-2023, 00:12:21,    168,    0.0,    0.1,   0.00,   0.00, 1024.2,   84.3, -999.0
09-02-2023, 00:12:31,    168,    0.0,    0.0,   0.00,   0.00, 1024.1,   84.3, -999.0
09-02-2023, 00:12:41,    175,    0.0,    0.1,   0.00,   0.00, 1024.1,   84.2, -999.0
09-02-2023, 00:12:51,    167,    0.0,    0.2,   0.00,   0.00, 1024.2,   84.2, -999.0
09-02-2023, 00:13:01,    167,    0.0,    0.1,   0.00,   0.00, 1024.1,   84.2, -999.0
09-02-2023, 00:13:11,    167,    0.0,    0.2,   0.00,   0.00, 1024.1,   84.2, -999.0
09-02-2023, 00:13:21,    138,    0.0,    0.2,   0.00,   0.00, 1024.1,   84.2, -999.0
09-02-2023, 00:13:31,    138,    0.0,    0.2,   0.00,   0.00, 1024.2,   84.3, -999.0
09-02-2023, 00:13:41,    140,    0.0,    0.2,   0.00,   0.00, 1024.2,   84.4, -999.0
09-02-2023, 00:13:51,    139,    0.0,    0.2,   0.00,   0.00, 1024.2,   84.6, -999.0
09-02-2023, 00:14:01,    140,    0.0,    0.3,   0.00,   0.00, 1024.2,   84.7, -999.0
09-02-2023, 00:14:11,    141,    0.0,    0.2,   0.00,   0.00, 1024.2,   84.4, -999.0
09-02-2023, 00:14:21,    141,    0.0,    0.2,   0.00,   0.00, 1024.2,   84.3, -999.0
09-02-2023, 00:14:31,    141,    0.0,    0.2,   0.00,   0.00, 1024.2,   84.2, -999.0
09-02-2023, 00:14:41,    141,    0.0,    0.2,   0.00,   0.00, 1024.2,   84.1, -999.0
09-02-2023, 00:14:51,    141,    0.0,    0.1,   0.00,   0.00, 1024.2,   84.1, -999.0
09-02-2023, 00:15:01,    141,    0.0,    0.2,   0.00,   0.00, 1024.2,   84.1, -999.0
09-02-2023, 00:15:11,    141,    0.0,    0.3,   0.00,   0.00, 1024.2,   84.0, -999.0
09-02-2023, 00:15:21,    141,    0.0,    0.2,   0.00,   0.00, 1024.2,   84.1, -999.0
09-02-2023, 00:15:31,    140,    0.0,    0.3,   0.00,   0.00, 1024.3,   84.3, -999.0
09-02-2023, 00:15:41,    142,    0.0,    0.2,   0.00,   0.00, 1024.3,   84.4, -999.0
09-02-2023, 00:15:51,    161,    0.0,    0.2,   0.00,   0.00, 1024.3,   84.3, -999.0
09-02-2023, 00:16:01,    161,    0.0,    0.1,   0.00,   0.00, 1024.3,   84.2, -999.0
09-02-2023, 00:16:11,    161,    0.0,    0.2,   0.00,   0.00, 1024.3,   84.1, -999.0
09-02-2023, 00:16:21,    161,    0.0,    0.2,   0.00,   0.00, 1024.3,   84.1, -999.0
09-02-2023, 00:16:31,    162,    0.0,    0.2,   0.00,   0.00, 1024.3,   84.1, -999.0
09-02-2023, 00:16:41,    163,    0.0,    0.2,   0.00,   0.00, 1024.3,   84.0, -999.0
09-02-2023, 00:16:50,    163,    0.0,    0.2,   0.00,   0.00, 1024.3,   83.9, -999.0
09-02-2023, 00:17:01,    163,    0.0,    0.2,   0.00,   0.00, 1024.3,   83.9, -999.0
09-02-2023, 00:17:11,    163,    0.0,    0.2,   0.00,   0.00, 1024.3,   83.9, -999.0
09-02-2023, 00:17:20,    163,    0.0,    0.2,   0.00,   0.00, 1024.3,   84.0, -999.0
09-02-2023, 00:17:30,    163,    0.0,    0.2,   0.00,   0.00, 1024.2,   84.0, -999.0
09-02-2023, 00:17:41,    163,    0.0,    0.2,   0.00,   0.00, 1024.2,   83.8, -999.0
09-02-2023, 00:17:51,    162,    0.0,    0.1,   0.00,   0.00, 1024.1,   83.7, -999.0
09-02-2023, 00:18:00,    162,    0.0,    0.1,   0.00,   0.00, 1024.1,   83.7, -999.0
09-02-2023, 00:18:10,    162,    0.0,    0.1,   0.00,   0.00, 1024.1,   83.6, -999.0
09-02-2023, 00:18:21,    162,    0.0,    0.1,   0.00,   0.00, 1024.1,   83.6, -999.0
09-02-2023, 00:18:30,    163,    0.0,    0.1,   0.00,   0.00, 1024.1,   83.6, -999.0
09-02-2023, 00:18:40,    162,    0.0,    0.1,   0.00,   0.00, 1024.1,   83.7, -999.0
09-02-2023, 00:18:51,    162,    0.0,    0.1,   0.00,   0.00, 1024.1,   83.7, -999.0
09-02-2023, 00:19:01,    162,    0.0,    0.0,   0.00,   0.00, 1024.1,   83.6, -999.0
09-02-2023, 00:19:10,    162,    0.0,    0.1,   0.00,   0.00, 1024.1,   83.6, -999.0
09-02-2023, 00:19:20,    162,    0.0,    0.1,   0.00,   0.00, 1024.1,   83.6, -999.0
09-02-2023, 00:19:31,    162,    0.0,    0.1,   0.00,   0.00, 1024.1,   83.7, -999.0
09-02-2023, 00:19:40,    162,    0.0,    0.0,   0.00,   0.00, 1024.1,   83.7, -999.0
09-02-2023, 00:19:50,    162,    0.0,    0.0,   0.00,   0.00, 1024.1,   83.8, -999.0
09-02-2023, 00:20:00,    162,    0.0,    0.0,   0.00,   0.00, 1024.1,   83.7, -999.0
09-02-2023, 00:20:10,    162,    0.0,    0.0,   0.00,   0.00, 1024.1,   83.7, -999.0
09-02-2023, 00:20:20,    163,    0.0,    0.0,   0.00,   0.00, 1024.1,   83.7, -999.0
09-02-2023, 00:20:30,    162,    0.0,   -0.1,   0.00,   0.00, 1024.1,   83.7, -999.0
09-02-2023, 00:20:40,    162,    0.0,    0.0,   0.00,   0.00, 1024.1,   83.8, -999.0
09-02-2023, 00:20:50,    162,    0.0,    0.0,   0.00,   0.00, 1024.1,   83.8, -999.0
09-02-2023, 00:21:00,    162,    0.0,   -0.1,   0.00,   0.00, 1024.1,   83.8, -999.0
09-02-2023, 00:21:10,    162,    0.0,   -0.2,   0.00,   0.00, 1024.1,   83.8, -999.0
09-02-2023, 00:21:20,    162,    0.0,   -0.1,   0.00,   0.00, 1024.1,   84.0, -999.0
09-02-2023, 00:21:30,    162,    0.0,    0.0,   0.00,   0.00, 1024.1,   83.9, -999.0
09-02-2023, 00:21:40,    162,    0.0,   -0.1,   0.00,   0.00, 1024.1,   84.1, -999.0
09-02-2023, 00:21:50,    162,    0.0,    0.0,   0.00,   0.00, 1024.1,   84.2, -999.0
09-02-2023, 00:22:00,    162,    0.0,    0.0,   0.00,   0.00, 1024.1,   84.2, -999.0
09-02-2023, 00:22:10,    162,    0.0,    0.0,   0.00,   0.00, 1024.1,   84.4, -999.0
09-02-2023, 00:22:20,    162,    0.0,    0.0,   0.00,   0.00, 1024.1,   84.3, -999.0
09-02-2023, 00:22:30,    162,    0.0,   -0.2,   0.00,   0.00, 1024.1,   84.4, -999.0
09-02-2023, 00:22:40,    161,    0.0,   -0.1,   0.00,   0.00, 1024.1,   84.4, -999.0
09-02-2023, 00:22:50,    162,    0.0,    0.0,   0.00,   0.00, 1024.0,   84.4, -999.0
09-02-2023, 00:23:00,    161,    0.0,   -0.1,   0.00,   0.00, 1024.0,   84.3, -999.0
09-02-2023, 00:23:10,    161,    0.0,   -0.2,   0.00,   0.00, 1024.0,   84.4, -999.0
09-02-2023, 00:23:20,    162,    0.0,   -0.1,   0.00,   0.00, 1024.0,   84.4, -999.0
09-02-2023, 00:23:30,    162,    0.0,   -0.1,   0.00,   0.00, 1024.0,   84.4, -999.0
09-02-2023, 00:23:40,    163,    0.0,   -0.2,   0.00,   0.00, 1024.0,   84.5, -999.0
09-02-2023, 00:23:50,    169,    0.0,   -0.1,   0.00,   0.00, 1023.9,   84.6, -999.0
09-02-2023, 00:24:00,    182,    0.4,   -0.1,   0.00,   0.00, 1024.0,   84.9, -999.0
09-02-2023, 00:24:10,    145,    0.5,    0.0,   0.00,   0.00, 1024.1,   84.9, -999.0
09-02-2023, 00:24:20,    145,    0.1,   -0.1,   0.00,   0.00, 1024.0,   85.0, -999.0
09-02-2023, 00:24:30,    145,    0.2,   -0.1,   0.00,   0.00, 1024.0,   85.0, -999.0
09-02-2023, 00:24:40,    140,    0.0,   -0.2,   0.00,   0.00, 1023.9,   84.8, -999.0
09-02-2023, 00:24:50,    145,    0.0,   -0.2,   0.00,   0.00, 1023.9,   84.8, -999.0
09-02-2023, 00:25:00,    144,    0.0,   -0.2,   0.00,   0.00, 1024.0,   84.8, -999.0
09-02-2023, 00:25:10,    180,    0.4,   -0.1,   0.00,   0.00, 1024.1,   85.0, -999.0
09-02-2023, 00:25:20,    180,    0.3,   -0.1,   0.00,   0.00, 1024.1,   85.1, -999.0
09-02-2023, 00:25:30,    190,    0.0,   -0.2,   0.00,   0.00, 1024.0,   84.9, -999.0
09-02-2023, 00:25:40,    190,    0.0,   -0.2,   0.00,   0.00, 1024.0,   84.9, -999.0
09-02-2023, 00:25:50,    190,    0.0,   -0.2,   0.00,   0.00, 1024.1,   85.1, -999.0
09-02-2023, 00:26:00,    190,    0.0,   -0.2,   0.00,   0.00, 1024.0,   85.1, -999.0
09-02-2023, 00:26:10,    190,    0.0,   -0.2,   0.00,   0.00, 1024.0,   85.2, -999.0
09-02-2023, 00:26:20,    191,    0.0,   -0.2,   0.00,   0.00, 1024.1,   85.2, -999.0
09-02-2023, 00:26:30,    191,    0.0,   -0.2,   0.00,   0.00, 1024.1,   85.0, -999.0
09-02-2023, 00:26:40,    191,    0.0,   -0.2,   0.00,   0.00, 1024.0,   84.9, -999.0
09-02-2023, 00:26:50,    186,    0.2,   -0.1,   0.00,   0.00, 1024.1,   85.1, -999.0
09-02-2023, 00:26:59,    185,    0.2,   -0.1,   0.00,   0.00, 1024.1,   85.2, -999.0
09-02-2023, 00:27:10,    185,    0.0,   -0.1,   0.00,   0.00, 1024.1,   85.1, -999.0
09-02-2023, 00:27:20,    184,    0.1,   -0.1,   0.00,   0.00, 1024.1,   85.3, -999.0
09-02-2023, 00:27:30,    184,    0.1,   -0.3,   0.00,   0.00, 1024.1,   85.1, -999.0
09-02-2023, 00:27:39,    182,    0.2,   -0.2,   0.00,   0.00, 1024.1,   85.2, -999.0
09-02-2023, 00:27:50,    181,    0.0,   -0.2,   0.00,   0.00, 1024.0,   85.1, -999.0
09-02-2023, 00:28:00,    182,    0.0,   -0.2,   0.00,   0.00, 1024.1,   85.3, -999.0
09-02-2023, 00:28:10,    174,    1.0,   -0.2,   0.00,   0.00, 1024.2,   85.7, -999.0
09-02-2023, 00:28:19,    179,    0.9,   -0.2,   0.00,   0.00, 1024.2,   85.7, -999.0
09-02-2023, 00:28:30,    141,    0.8,   -0.2,   0.00,   0.00, 1024.2,   85.6, -999.0
09-02-2023, 00:28:40,    138,    0.0,   -0.3,   0.00,   0.00, 1024.1,   85.4, -999.0
09-02-2023, 00:28:49,    141,    0.0,   -0.3,   0.00,   0.00, 1024.1,   85.4, -999.0
09-02-2023, 00:28:59,    141,    0.0,   -0.3,   0.00,   0.00, 1024.1,   85.5, -999.0
09-02-2023, 00:29:10,    140,    0.0,   -0.3,   0.00,   0.00, 1024.1,   85.7, -999.0
09-02-2023, 00:29:19,    149,    0.0,   -0.3,   0.00,   0.00, 1024.1,   85.7, -999.0
09-02-2023, 00:29:29,    151,    0.0,   -0.3,   0.00,   0.00, 1024.1,   85.9, -999.0
09-02-2023, 00:29:39,    150,    0.0,   -0.3,   0.00,   0.00, 1024.1,   86.0, -999.0
09-02-2023, 00:29:50,    155,    0.0,   -0.3,   0.00,   0.00, 1024.1,   85.9, -999.0
09-02-2023, 00:29:59,    178,    0.1,   -0.2,   0.00,   0.00, 1024.2,   86.1, -999.0
09-02-2023, 00:30:09,    178,    0.0,   -0.3,   0.00,   0.00, 1024.2,   86.1, -999.0
09-02-2023, 00:30:19,    178,    0.0,   -0.3,   0.00,   0.00, 1024.1,   85.9, -999.0
09-02-2023, 00:30:29,    178,    0.0,   -0.4,   0.00,   0.00, 1024.1,   86.0, -999.0
09-02-2023, 00:30:39,    178,    0.0,   -0.3,   0.00,   0.00, 1024.1,   86.0, -999.0
09-02-2023, 00:30:49,    178,    0.0,   -0.4,   0.00,   0.00, 1024.0,   86.0, -999.0
09-02-2023, 00:31:00,    175,    0.5,   -0.3,   0.00,   0.00, 1024.1,   86.4, -999.0
09-02-2023, 00:31:09,    174,    0.4,   -0.3,   0.00,   0.00, 1024.1,   86.5, -999.0
09-02-2023, 00:31:19,    174,    0.0,   -0.3,   0.00,   0.00, 1024.0,   86.3, -999.0
09-02-2023, 00:31:29,    168,    0.0,   -0.4,   0.00,   0.00, 1024.0,   86.4, -999.0
09-02-2023, 00:31:39,    174,    0.0,   -0.4,   0.00,   0.00, 1024.0,   86.4, -999.0
09-02-2023, 00:31:49,    167,    0.5,   -0.3,   0.00,   0.00, 1024.0,   86.7, -999.0
09-02-2023, 00:31:59,    165,    0.7,   -0.3,   0.00,   0.00, 1024.1,   87.1, -999.0
09-02-2023, 00:32:09,    165,    0.2,   -0.3,   0.00,   0.00, 1024.1,   87.0, -999.0
09-02-2023, 00:32:19,    165,    0.0,   -0.3,   0.00,   0.00, 1024.0,   86.9, -999.0
09-02-2023, 00:32:29,    166,    0.0,   -0.4,   0.00,   0.00, 1023.9,   86.8, -999.0
09-02-2023, 00:32:39,    165,    0.0,   -0.4,   0.00,   0.00, 1024.0,   87.0, -999.0
09-02-2023, 00:32:49,    166,    0.0,   -0.4,   0.00,   0.00, 1024.0,   87.1, -999.0
09-02-2023, 00:32:59,    165,    0.0,   -0.4,   0.00,   0.00, 1024.0,   87.2, -999.0
09-02-2023, 00:33:09,    166,    0.1,   -0.4,   0.00,   0.00, 1024.1,   87.3, -999.0
09-02-2023, 00:33:19,    165,    0.1,   -0.3,   0.00,   0.00, 1024.1,   87.2, -999.0
09-02-2023, 00:33:29,    165,    0.0,   -0.4,   0.00,   0.00, 1024.0,   86.9, -999.0
09-02-2023, 00:33:39,    165,    0.0,   -0.4,   0.00,   0.00, 1024.1,   86.9, -999.0
09-02-2023, 00:33:49,    165,    0.0,   -0.4,   0.00,   0.00, 1024.0,   86.9, -999.0
09-02-2023, 00:33:59,    166,    0.0,   -0.4,   0.00,   0.00, 1024.1,   87.1, -999.0
09-02-2023, 00:34:09,    160,    0.0,   -0.4,   0.00,   0.00, 1024.0,   87.3, -999.0
09-02-2023, 00:34:19,    162,    0.1,   -0.4,   0.00,   0.00, 1024.1,   87.7, -999.0
09-02-2023, 00:34:29,    162,    0.0,   -0.4,   0.00,   0.00, 1024.0,   87.5, -999.0
09-02-2023, 00:34:39,    162,    0.0,   -0.4,   0.00,   0.00, 1024.1,   87.5, -999.0
09-02-2023, 00:34:49,    163,    0.1,   -0.4,   0.00,   0.00, 1024.1,   87.4, -999.0
09-02-2023, 00:34:59,    163,    0.4,   -0.4,   0.00,   0.00, 1024.2,   87.7, -999.0
09-02-2023, 00:35:09,    162,    0.2,   -0.4,   0.00,   0.00, 1024.2,   87.9, -999.0
09-02-2023, 00:35:19,    169,    0.7,   -0.5,   0.00,   0.00, 1024.2,   88.2, -999.0
09-02-2023, 00:35:29,    167,    0.2,   -0.4,   0.00,   0.00, 1024.2,   88.3, -999.0
09-02-2023, 00:35:39,    167,    0.1,   -0.4,   0.00,   0.00, 1024.2,   88.5, -999.0
09-02-2023, 00:35:49,    166,    0.0,   -0.4,   0.00,   0.00, 1024.1,   88.4, -999.0
09-02-2023, 00:35:59,    166,    0.0,   -0.4,   0.00,   0.00, 1024.1,   88.9, -999.0
09-02-2023, 00:36:09,    164,    0.3,   -0.4,   0.00,   0.00, 1024.2,   89.6, -999.0
09-02-2023, 00:36:19,    163,    0.1,   -0.4,   0.00,   0.00, 1024.1,   89.9, -999.0
09-02-2023, 00:36:29,    164,    0.0,   -0.3,   0.00,   0.00, 1024.1,   90.3, -999.0
09-02-2023, 00:36:38,    164,    0.0,   -0.4,   0.00,   0.00, 1024.1,   90.8, -999.0
09-02-2023, 00:36:49,    167,    0.0,   -0.3,   0.00,   0.00, 1024.1,   91.2, -999.0
09-02-2023, 00:36:59,    167,    0.0,   -0.3,   0.00,   0.00, 1024.1,   90.5, -999.0
09-02-2023, 00:37:09,    166,    0.0,   -0.3,   0.00,   0.00, 1024.1,   90.1, -999.0
09-02-2023, 00:37:19,    165,    0.3,   -0.3,   0.00,   0.00, 1024.2,   90.0, -999.0
09-02-2023, 00:37:29,    164,    0.0,   -0.3,   0.00,   0.00, 1024.1,   89.4, -999.0
09-02-2023, 00:37:39,    164,    0.0,   -0.3,   0.00,   0.00, 1024.1,   88.9, -999.0
09-02-2023, 00:37:48,    163,    0.0,   -0.3,   0.00,   0.00, 1024.1,   88.7, -999.0
09-02-2023, 00:37:59,    163,    0.0,   -0.4,   0.00,   0.00, 1024.1,   88.5, -999.0
09-02-2023, 00:38:09,    164,    0.0,   -0.4,   0.00,   0.00, 1024.1,   88.6, -999.0
09-02-2023, 00:38:19,    164,    0.0,   -0.4,   0.00,   0.00, 1024.1,   88.9, -999.0
09-02-2023, 00:38:28,    164,    0.0,   -0.3,   0.00,   0.00, 1024.1,   88.8, -999.0
09-02-2023, 00:38:39,    164,    0.0,   -0.4,   0.00,   0.00, 1024.1,   88.7, -999.0
09-02-2023, 00:38:49,    164,    0.0,   -0.4,   0.00,   0.00, 1024.1,   88.7, -999.0
09-02-2023, 00:38:58,    164,    0.0,   -0.4,   0.00,   0.00, 1024.1,   88.6, -999.0
09-02-2023, 00:39:08,    164,    0.0,   -0.4,   0.00,   0.00, 1024.1,   88.4, -999.0
09-02-2023, 00:39:19,    164,    0.0,   -0.4,   0.00,   0.00, 1024.1,   88.2, -999.0
09-02-2023, 00:39:28,    164,    0.0,   -0.3,   0.00,   0.00, 1024.1,   88.2, -999.0
09-02-2023, 00:39:38,    163,    0.0,   -0.4,   0.00,   0.00, 1024.1,   87.9, -999.0
09-02-2023, 00:39:48,    164,    0.0,   -0.4,   0.00,   0.00, 1024.1,   87.8, -999.0
09-02-2023, 00:39:59,    163,    0.3,   -0.4,   0.00,   0.00, 1024.2,   88.0, -999.0
09-02-2023, 00:40:08,    163,    0.0,   -0.4,   0.00,   0.00, 1024.1,   87.7, -999.0
09-02-2023, 00:40:18,    163,    0.0,   -0.4,   0.00,   0.00, 1024.1,   87.6, -999.0
09-02-2023, 00:40:29,    163,    0.0,   -0.4,   0.00,   0.00, 1024.1,   87.8, -999.0
09-02-2023, 00:40:38,    163,    0.0,   -0.4,   0.00,   0.00, 1024.1,   87.8, -999.0
09-02-2023, 00:40:48,    163,    0.0,   -0.5,   0.00,   0.00, 1024.1,   87.9, -999.0
09-02-2023, 00:40:58,    163,    0.0,   -0.5,   0.00,   0.00, 1024.1,   88.0, -999.0
09-02-2023, 00:41:09,    163,    0.0,   -0.5,   0.00,   0.00, 1024.1,   88.2, -999.0
09-02-2023, 00:41:18,    163,    0.0,   -0.5,   0.00,   0.00, 1024.1,   88.3, -999.0
09-02-2023, 00:41:28,    163,    0.0,   -0.5,   0.00,   0.00, 1024.1,   88.3, -999.0
09-02-2023, 00:41:38,    163,    0.0,   -0.4,   0.00,   0.00, 1024.1,   88.3, -999.0
09-02-2023, 00:41:48,    163,    0.0,   -0.4,   0.00,   0.00, 1024.1,   88.4, -999.0
09-02-2023, 00:41:58,    163,    0.0,   -0.4,   0.00,   0.00, 1024.1,   89.3, -999.0
09-02-2023, 00:42:08,    162,    0.0,   -0.4,   0.00,   0.00, 1024.1,   89.4, -999.0
09-02-2023, 00:42:18,    163,    0.0,   -0.6,   0.00,   0.00, 1024.1,   89.5, -999.0
09-02-2023, 00:42:28,    163,    0.0,   -0.4,   0.00,   0.00, 1024.1,   89.7, -999.0
09-02-2023, 00:42:38,    163,    0.0,   -0.4,   0.00,   0.00, 1024.1,   89.7, -999.0
09-02-2023, 00:42:48,    163,    0.0,   -0.4,   0.00,   0.00, 1024.1,   89.5, -999.0
09-02-2023, 00:42:58,    163,    0.0,   -0.4,   0.00,   0.00, 1024.1,   89.3, -999.0
09-02-2023, 00:43:08,    163,    0.0,   -0.4,   0.00,   0.00, 1024.1,   89.3, -999.0
09-02-2023, 00:43:18,    163,    0.0,   -0.4,   0.00,   0.00, 1024.1,   89.4, -999.0
09-02-2023, 00:43:28,    162,    0.0,   -0.4,   0.00,   0.00, 1024.1,   89.6, -999.0
09-02-2023, 00:43:38,    163,    0.0,   -0.3,   0.00,   0.00, 1024.1,   90.1, -999.0
09-02-2023, 00:43:48,    163,    0.0,   -0.4,   0.00,   0.00, 1024.1,   90.1, -999.0
09-02-2023, 00:43:58,    162,    0.0,   -0.4,   0.00,   0.00, 1024.1,   89.8, -999.0
09-02-2023, 00:44:08,    162,    0.0,   -0.5,   0.00,   0.00, 1024.1,   89.4, -999.0
09-02-2023, 00:44:18,    163,    0.0,   -0.4,   0.00,   0.00, 1024.1,   89.0, -999.0
09-02-2023, 00:44:28,    163,    0.0,   -0.5,   0.00,   0.00, 1024.1,   88.9, -999.0
09-02-2023, 00:44:38,    163,    0.0,   -0.4,   0.00,   0.00, 1024.1,   88.9, -999.0
09-02-2023, 00:44:48,    162,    0.0,   -0.5,   0.00,   0.00, 1024.1,   88.8, -999.0
09-02-2023, 00:44:58,    163,    0.0,   -0.5,   0.00,   0.00, 1024.1,   88.6, -999.0
09-02-2023, 00:45:08,    163,    0.0,   -0.4,   0.00,   0.00, 1024.1,   88.5, -999.0
09-02-2023, 00:45:18,    163,    0.0,   -0.4,   0.00,   0.00, 1024.1,   88.5, -999.0
09-02-2023, 00:45:28,    162,    0.0,   -0.4,   0.00,   0.00, 1024.1,   88.5, -999.0
09-02-2023, 00:45:38,    163,    0.0,   -0.4,   0.00,   0.00, 1024.1,   88.4, -999.0
09-02-2023, 00:45:48,    163,    0.0,   -0.4,   0.00,   0.00, 1024.1,   88.4, -999.0
09-02-2023, 00:45:58,    162,    0.0,   -0.4,   0.00,   0.00, 1024.1,   88.7, -999.0
09-02-2023, 00:46:08,    162,    0.0,   -0.4,   0.00,   0.00, 1024.1,   88.9, -999.0
09-02-2023, 00:46:18,    162,    0.0,   -0.5,   0.00,   0.00, 1024.1,   88.8, -999.0
09-02-2023, 00:46:28,    163,    0.0,   -0.5,   0.00,   0.00, 1024.1,   88.8, -999.0
09-02-2023, 00:46:38,    163,    0.0,   -0.4,   0.00,   0.00, 1024.1,   88.8, -999.0
09-02-2023, 00:46:48,    163,    0.0,   -0.4,   0.00,   0.00, 1024.1,   88.6, -999.0